Погода в Семёновщине

Россия / Новгородская область     57°55′19″N   32°42′10″E
темп.,
°C
ветер,
м/с
пор.,
м/с
влажн.,
%
обл.,
%
осадки,
мм/ч
давл.,
гПа
погр.,
м
20 июня, вс
вс2000:00+18ююв22770 0.0 102113
03:00+16ю23870 0.0 102145
06:00+18ююз26830 0.0 1021173
09:00+24ююз35633 0.0 1021536
12:00+28юз35465 0.0 10201460
15:00+30зюз35415 0.0 10191989
18:00+29зюз25493 0.0 10182071
21:00+24ю117564 0.0 101812
21 июня, пн
пн2100:00+21ююз228010 0.0 101829
03:00+19ю22893 0.3 101923
06:00+20юз149457 1.8 1020109
09:00+25юз237448 1.9 1019327
12:00+30ююз234529 0.0 10191584
15:00+32юз233420 0.0 10182699
18:00+32ссз024331 0.0 10171749
21:00+24ю117364 0.0 101714
22 июня, вт
вт2200:00+22ююв3878100 0.3 1019181
03:00+18ю24899 0.7 101965
06:00+19юв25884 0.0 1019128
09:00+26ююв35585 0.0 1019582
12:00+31ююв35385 0.0 10181491
15:00+33ю463145 0.0 10172178
18:00+31ю363833 0.0 1016873
21:00+24ююв310665 0.0 1016189
23 июня, ср
ср2300:00+23ю312676 0.0 1017322
03:00+21ю398090 0.0 1018188
06:00+21ю388294 0.0 1018218
09:00+27ююз485885 0.0 1018713
12:00+31ююз473557 0.0 10181697
15:00+33юз46295 0.0 10172352
18:00+32юз36374 0.0 10161060
21:00+24юз11675 0.0 101711
24 июня, чт
чт2400:00+22ююв22673 0.0 101837
03:00+21ю247836 0.0 101876
06:00+21ю27934 1.0 1018187
09:00+27ююз24695 1.1 1018438
12:00+32юз35474 0.0 10181777
15:00+34юз353636 0.0 10173012
18:00+33з474221 0.0 10161799
21:00+18ю129699 5.9 101959